Content
SEND FEEDBACK

Daily
Averages
Monthly
Summary
United States of America

EARTH CITY, MISSOURI


Home > North America > United States > Missouri
Elevation: 476 feet     Latitude: 38 46N     Longitude: 090 30W

WEATHER
 
SELECT A DAY
Number of Records: 208,446;   Date Range: 1/1/95 - 12/24/14
 
SHARE

PRINT THIS DATA

[ ← Previous Day ]
WEATHER ALMANAC - APRIL 28, 2013
[ Next Day → ]
[ °C ]   °F
Weather ElementAverageHighLow
Temperature54.5 °F57.9 °F (12:51 pm)50 °F (11:51 pm)
Dewpoint50.1 °F51.8 °F (1:39 am)45 °F (11:51 pm)
Humidity85.7 %94 % (1:39 am)72 % (12:51 pm)
Barometer29.93 in29.97 in (10:51 am)29.90 in (4:20 am)
Wind Speed8 mph15 mph (10:51 am)
Wind Gust19.6 mph (10:22 am)
Weather ElementAverage
Visibility5.3 mi
Wind DirectionWNW (281.2 °)

Weather ElementTotal
Precipitation0.01 in
Heating Degree Days11.1 (Base 65)
Growing Degree Days4 (Base 50)
Averaged from 41 records on April 28, 2013
WEATHER CONDITIONS BREAKOUT
WIND DIRECTION BREAKOUT
WEATHER BY HOUR - APRIL 28, 2013
[ °C ]   °F
Local TimeTemperatureDewpointHumidityBarometerVisibilityWind DirectionWind SpeedGust SpeedPrecipitationEventsConditions
12:51 AM53.1 °F51.1 °F93 %29.94 in3.0 miNW (310°)4.6 mph0.00 inLight Drizzle
1:39 AM53.6 °F51.8 °F94 %29.93 in2.5 miWNW (300°)4.6 mph0.00 inLight Drizzle
1:51 AM53.1 °F51.1 °F93 %29.92 in2.5 miWNW (290°)5.8 mph0.00 inLight Drizzle
2:51 AM53.1 °F51.1 °F93 %29.91 in2.0 miWNW (300°)8.1 mph0.01 inLight Drizzle
3:14 AM53.6 °F51.8 °F94 %29.91 in1.8 miNW (310°)6.9 mph0.00 inLight Drizzle
3:28 AM53.6 °F51.8 °F94 %29.91 in0.8 miWNW (300°)6.9 mph0.00 inLight Drizzle
3:47 AM53.6 °F51.8 °F94 %29.91 in0.1 miWNW (290°)9.2 mph0.00 inFogHeavy Drizzle
3:51 AM53.1 °F51.1 °F93 %29.91 in0.1 miWNW (300°)5.8 mph0.00 inFogHeavy Drizzle
4:11 AM53.6 °F51.8 °F94 %29.91 in0.8 miWNW (300°)8.1 mph0.00 inLight Drizzle
4:20 AM53.6 °F51.8 °F94 %29.90 in1.8 miNW (310°)9.2 mph0.00 inLight Drizzle
4:38 AM53.6 °F51.8 °F94 %29.91 in2.0 miWNW (300°)6.9 mph0.00 inLight Drizzle
4:51 AM53.1 °F51.1 °F93 %29.91 in2.5 miNW (310°)6.9 mph0.00 inLight Drizzle
5:09 AM53.6 °F51.8 °F94 %29.91 in3.0 miNW (310°)8.1 mph0.00 inLight Drizzle
5:51 AM53.1 °F50.0 °F89 %29.91 in3.0 miNW (310°)8.1 mph0.00 inLight Drizzle
6:23 AM53.6 °F50.0 °F88 %29.92 in4.0 miWNW (300°)6.9 mph0.00 inLight Drizzle
6:42 AM53.6 °F50.0 °F88 %29.93 in2.5 miWNW (300°)6.9 mph0.00 inLight Drizzle
6:51 AM53.1 °F51.1 °F93 %29.93 in2.0 miWNW (290°)6.9 mph0.00 inLight Drizzle
7:01 AM53.6 °F50.0 °F88 %29.93 in3.0 miWNW (290°)6.9 mph0.00 inLight Drizzle
7:20 AM53.6 °F50.0 °F88 %29.94 in4.0 miWNW (290°)6.9 mph0.00 inLight Drizzle
7:30 AM53.6 °F50.0 °F88 %29.95 in5.0 miWNW (290°)8.1 mph0.00 inLight Drizzle
7:51 AM53.1 °F50.0 °F89 %29.95 in5.0 miWNW (300°)5.8 mph0.00 inOvercast
7:58 AM53.6 °F51.8 °F94 %29.95 in5.0 miWNW (290°)8.1 mphOvercast
8:23 AM53.6 °F50.0 °F88 %29.95 in4.0 miWNW (300°)11.5 mphOvercast
8:51 AM54.0 °F51.1 °F90 %29.95 in4.0 miWNW (300°)9.2 mphOvercast
9:40 AM53.6 °F50.0 °F88 %29.96 in5.0 miWNW (290°)11.5 mphOvercast
9:51 AM54.0 °F50.0 °F86 %29.96 in5.0 miWNW (290°)12.7 mphOvercast
10:22 AM55.4 °F50.0 °F82 %29.96 in6.0 miNW (310°)13.8 mph19.6 mphHaze
10:51 AM55.0 °F50.0 °F83 %29.97 in8.0 miWest (280°)15.0 mphOvercast
11:46 AM55.4 °F50.0 °F82 %29.97 in9.0 miWest (280°)15.0 mphOvercast
11:51 AM55.9 °F50.0 °F80 %29.97 in9.0 miWest (280°)12.7 mphOvercast
12:51 PM57.9 °F48.9 °F72 %29.96 in10.0 miNW (310°)10.4 mphOvercast
1:51 PM57.0 °F48.9 °F74 %29.95 in10.0 miNW (310°)13.8 mph17.3 mphOvercast
2:51 PM57.9 °F48.9 °F72 %29.96 in10.0 miWNW (300°)6.9 mphOvercast
3:51 PM57.9 °F48.9 °F72 %29.94 in10.0 miWNW (290°)6.9 mphOvercast
5:51 PM57.0 °F48.9 °F74 %29.93 in10.0 miWest (260°)4.6 mphOvercast
6:51 PM57.0 °F48.0 °F72 %29.92 in10.0 miWSW (240°)5.8 mphOvercast
7:51 PM57.0 °F48.0 °F72 %29.93 in10.0 miSSW (200°)3.5 mphOvercast
8:51 PM57.0 °F48.0 °F72 %29.94 in10.0 miSW (230°)4.6 mphOvercast
9:51 PM57.0 °F48.0 °F72 %29.94 in10.0 miSouth (180°)4.6 mphOvercast
10:51 PM55.0 °F48.0 °F77 %29.94 in10.0 miSSE (160°)3.5 mphScattered Clouds
11:51 PM50.0 °F45.0 °F83 %29.94 in10.0 miSE (130°)5.8 mphPartly Cloudy
Hourly data recorded from KSTL, located miles away from Earth City, Missouri







STORIES FROM OUR PARTNERS